Location: Newark
(27.9675°N, 86.8869°E)
Time: 07:05:03
(UTC+00:00)

Vanguard 3 - Pass Details

Date: 26 October 2019
Orbit: 508 x 3263 km, 33.3° (Epoch: 12 November)

Event Time Altitude Azimuth Distance (km) Brightness Sun altitude
Rises 18:26:25 0° 287° (WNW) 2,862 - -73.0°
Reaches altitude 10° 18:28:57 10° 295° (WNW) 1,807 - -72.8°
Maximum altitude 18:32:34 39° 6° (N) 762 - -72.4°
Drops below altitude 10° 18:36:09 10° 78° (ENE) 1,774 - -72.0°
Sets 18:38:36 0° 86° (E) 2,800 - -71.7°
